Probability
19 19 19 23 16 6 0 3 0 0 0 0 0 0 0 0 0 0 0 0 0 0 0 0 0 0 0 0 0 0 0 0 0 0 0 0 0 0 0 0 0 0 0
23 23 16 16 10 6 0 0 0 0 0 0 0 0 0 0 0 0 0 0 0 0 0 0 0 0 0 0 0 0 0 0 0 0 0 0 0 0 0 0 0 0 0
26 23 19 13 0 3 0 3 0 0 0 0 0 0 0 0 0 0 0 0 0 0 0 0 0 0 0 0 0 0 0 0 0 0 0 0 0 0 0 0 0 0 0
23 16 16 10 3 0 0 0 0 0 0 0 0 0 0 0 0 0 0 0 0 0 0 0 0 0 0 0 0 0 0 0 0 0 0 0 0 0 0 0 0 0 0
16 19 19 10 10 3 0 0 0 0 0 0 0 0 0 0 0 0 0 0 0 0 0 0 0 0 0 0 0 0 0 0 0 0 0 0 0 0 0 0 0 0 0
10 10 13 13 10 6 3 3 3 3 0 0 0 0 0 0 0 0 0 0 0 0 0 0 0 0 0 0 0 0 0 0 0 0 0 0 0 0 0 0 0 0 0
10 6 3 10 6 6 6 6 3 3 3 0 0 0 0 0 0 0 0 0 0 0 0 0 0 0 0 0 0 0 0 0 0 0 0 0 0 0 0 0 0 0 0
13 13 10 10 10 6 6 6 6 3 3 3 3 0 0 0 0 0 0 0 0 0 0 0 0 0 0 0 0 0 0 0 0 0 0 0 0 0 0 0 0 0 0
13 13 10 10 10 6 6 6 6 6 3 3 3 0 0 0 0 0 0 0 0 0 0 0 0 0 0 0 0 0 0 0 0 0 0 0 0 0 0 0 0 0 0
10 10 13 10 13 6 6 6 6 6 6 3 3 0 0 0 0 0 0 0 0 0 0 0 0 0 0 0 0 0 0 0 0 0 0 0 0 0 0 0 0 0 0
3 6 6 6 10 6 6 6 3 3 3 3 3 3 0 0 0 0 0 0 0 0 0 0 0 0 0 0 0 0 0 0 0 0 0 0 0 0 0 0 0 0 0
0 3 3 3 3 3 3 3 3 3 3 3 3 3 0 0 0 0 0 0 0 0 0 0 0 0 0 0 0 0 0 0 0 0 0 0 0 0 0 0 0 0 0
0 3 3 3 3 3 3 3 3 3 3 3 3 0 0 0 0 0 0 0 0 0 0 0 0 0 0 0 0 0 0 0 0 0 0 0 0 0 0 0 0 0 0
0 0 0 0 0 0 0 0 3 3 0 0 0 0 0 0 0 0 0 0 0 0 0 0 0 0 0 0 0 0 0 0 0 0 0 0 0 0 0 0 0 0 0
0 0 0 0 0 0 0 3 3 0 0 0 0 0 0 0 0 0 0 0 0 0 0 0 0 0 0 0 0 0 0 0 0 0 0 0 0 0 0 0 0 0 0
0 0 0 0 0 0 0 0 0 0 0 0 0 0 0 0 0 0 0 0 0 0 0 0 0 0 0 0 0 0 0 0 0 0 0 0 0 0 0 0 0 0 0
0 0 0 0 0 0 0 0 0 0 0 0 0 0 0 0 0 0 0 0 0 0 0 0 0 0 0 0 0 0 0 0 0 0 0 0 0 0 0 0 0 0 0
0 0 0 0 0 0 0 0 0 0 0 0 0 0 0 0 0 0 0 0 0 0 0 0 0 0 0 0 0 0 0 0 0 0 0 0 0 0 0 0 0 0 0
0 0 0 0 0 0 0 0 0 0 0 0 0 0 0 0 0 0 0 0 0 0 0 0 0 0 0 0 0 0 0 0 0 0 0 0 0 0 0 0 0 0 0
0 0 0 0 0 0 0 0 0 0 0 0 0 0 0 0 0 0 0 0 0 0 0 0 0 0 0 0 0 0 0 0 0 0 0 0 0 0 0 0 0 0 0
0 0 0 0 0 0 0 0 0 0 0 0 0 0 0 0 0 0 0 0 0 0 0 0 0 0 0 0 0 0 0 0 0 0 0 0 0 0 0 0 0 0 0
0 0 0 0 0 0 0 0 0 0 0 0 0 0 0 0 0 0 0 0 0 0 0 0 0 0 0 0 0 0 0 0 0 0 0 0 0 0 0 0 0 0 0
0 0 0 0 0 0 0 0 0 0 0 0 0 0 0 0 0 0 0 0 0 0 0 0 0 0 0 0 0 0 0 0 0 0 0 0 0 0 0 0 0 0 0
0 0 0 0 0 0 0 0 0 0 0 0 0 0 0 0 0 0 0 0 0 0 0 0 0 0 0 0 0 0 0 0 0 0 0 0 0 0 0 0 0 0 0
0 0 0 0 0 0 0 0 0 0 0 0 0 0 0 0 0 0 0 0 0 0 0 0 0 0 0 0 0 0 0 0 0 0 0 0 0 0 0 0 0 0 0
0 0 0 0 0 0 0 0 0 0 0 0 0 0 0 0 0 0 0 0 0 0 0 0 0 0 0 0 0 0 0 0 0 0 0 0 0 0 0 0 0 0 0
Height
5836 5838 5841 5843 5846 5849 5853 5855 5857 5860 5862 5863 5864 5865 5866 5866 5867 5867 5867 5867 5867 5866 5866 5865 5864 5864 5863 5862 5861 5860 5859 5858 5858 5857 5857 5856 5856 5855 5855 5855 5856 5856 5856
5836 5839 5841 5843 5845 5848 5850 5853 5856 5858 5860 5862 5863 5864 5865 5865 5866 5866 5866 5866 5865 5865 5864 5864 5863 5862 5861 5860 5859 5858 5857 5856 5856 5855 5854 5854 5854 5853 5852 5852 5852 5852 5852
5837 5838 5840 5843 5845 5848 5850 5853 5855 5856 5859 5860 5861 5863 5864 5864 5865 5865 5865 5865 5864 5864 5863 5862 5861 5861 5860 5859 5858 5857 5856 5854 5854 5853 5852 5851 5851 5850 5850 5849 5849 5849 5849
5837 5839 5840 5842 5845 5848 5850 5852 5854 5856 5858 5859 5860 5862 5863 5863 5863 5863 5863 5863 5863 5862 5862 5861 5860 5859 5858 5857 5856 5855 5854 5853 5851 5850 5849 5849 5848 5847 5846 5846 5845 5845 5845
5839 5840 5841 5843 5845 5847 5849 5851 5854 5856 5857 5858 5859 5861 5861 5862 5862 5862 5862 5862 5862 5861 5860 5859 5859 5858 5856 5855 5854 5853 5852 5850 5849 5848 5847 5845 5844 5843 5843 5842 5842 5841 5840
5840 5841 5842 5844 5846 5848 5850 5852 5853 5855 5856 5857 5858 5859 5860 5860 5861 5861 5861 5861 5860 5860 5859 5858 5857 5856 5855 5853 5852 5850 5849 5848 5846 5845 5844 5842 5841 5839 5838 5837 5836 5836 5835
5842 5842 5843 5845 5846 5848 5850 5851 5853 5854 5855 5856 5857 5858 5859 5859 5859 5859 5859 5859 5858 5858 5857 5856 5855 5853 5852 5851 5849 5848 5846 5845 5843 5842 5840 5838 5837 5835 5834 5832 5831 5830 5829
5842 5843 5844 5845 5846 5848 5849 5850 5851 5852 5853 5855 5856 5857 5857 5857 5857 5857 5857 5857 5856 5855 5854 5853 5852 5850 5849 5847 5846 5844 5843 5841 5839 5838 5836 5834 5832 5830 5829 5827 5825 5824 5822
5843 5843 5844 5845 5846 5847 5848 5849 5850 5851 5852 5853 5854 5854 5855 5855 5855 5855 5854 5854 5853 5852 5851 5849 5848 5847 5845 5844 5842 5840 5839 5837 5835 5833 5831 5829 5827 5825 5823 5821 5819 5818 5816
5843 5843 5844 5844 5845 5846 5847 5848 5849 5850 5851 5851 5851 5852 5852 5852 5852 5852 5851 5850 5849 5848 5847 5846 5844 5843 5841 5839 5837 5836 5834 5832 5830 5828 5825 5823 5821 5818 5816 5814 5812 5810 5809
5843 5843 5843 5843 5844 5845 5845 5846 5847 5847 5848 5848 5848 5848 5849 5849 5848 5848 5847 5846 5845 5844 5842 5841 5839 5838 5836 5834 5832 5830 5828 5826 5824 5821 5819 5816 5814 5811 5809 5806 5804 5802 5801
5842 5841 5841 5842 5842 5842 5843 5844 5844 5844 5845 5845 5845 5845 5845 5844 5843 5843 5842 5841 5840 5838 5837 5835 5834 5832 5830 5829 5826 5824 5822 5819 5817 5814 5812 5809 5806 5803 5801 5798 5796 5794 5792
5840 5839 5839 5839 5839 5840 5840 5840 5841 5841 5841 5841 5841 5840 5840 5839 5838 5837 5836 5835 5834 5832 5831 5829 5827 5826 5824 5822 5820 5817 5815 5812 5809 5807 5804 5801 5798 5795 5792 5789 5787 5784 5782
5837 5837 5836 5836 5836 5836 5836 5836 5837 5837 5836 5836 5836 5835 5834 5833 5832 5831 5829 5828 5827 5825 5824 5822 5820 5818 5816 5814 5812 5809 5807 5804 5801 5798 5796 5792 5789 5786 5783 5780 5777 5774 5772
5834 5834 5833 5833 5833 5832 5832 5832 5832 5831 5831 5830 5830 5829 5827 5826 5825 5824 5822 5821 5819 5817 5816 5814 5812 5810 5808 5806 5803 5801 5798 5795 5792 5789 5787 5783 5780 5777 5774 5771 5767 5764 5761
5830 5830 5829 5829 5828 5828 5827 5827 5826 5826 5825 5824 5823 5822 5821 5819 5818 5816 5814 5813 5811 5809 5807 5805 5803 5801 5799 5796 5794 5791 5789 5786 5783 5780 5777 5774 5771 5767 5764 5761 5757 5754 5751
5825 5825 5824 5823 5823 5823 5822 5821 5821 5820 5819 5818 5817 5815 5813 5812 5810 5808 5806 5804 5802 5800 5798 5796 5794 5792 5789 5787 5784 5781 5779 5776 5773 5770 5767 5764 5760 5757 5754 5750 5747 5743 5740
5819 5819 5818 5818 5817 5817 5816 5815 5814 5813 5812 5810 5809 5807 5805 5804 5802 5799 5797 5795 5792 5790 5788 5786 5784 5782 5779 5776 5773 5770 5768 5766 5762 5759 5756 5753 5749 5746 5743 5739 5736 5732 5728
5812 5811 5811 5811 5811 5810 5809 5808 5807 5805 5804 5802 5801 5799 5797 5794 5792 5790 5787 5785 5783 5781 5778 5776 5773 5771 5768 5765 5761 5758 5756 5753 5751 5747 5744 5740 5738 5734 5730 5727 5724 5721 5716
5805 5804 5804 5803 5803 5802 5801 5800 5799 5797 5795 5793 5791 5789 5787 5785 5782 5779 5777 5774 5772 5769 5767 5764 5762 5759 5756 5753 5749 5745 5743 5740 5738 5734 5731 5728 5724 5721 5717 5714 5711 5708 5705
5797 5797 5796 5795 5795 5794 5793 5791 5790 5788 5786 5784 5782 5779 5777 5774 5771 5769 5766 5763 5760 5758 5755 5752 5749 5746 5743 5740 5736 5732 5728 5726 5723 5720 5717 5714 5710 5707 5704 5701 5698 5695 5692
5789 5789 5788 5787 5786 5785 5784 5782 5780 5778 5776 5773 5771 5768 5766 5763 5760 5757 5754 5750 5747 5744 5741 5738 5735 5732 5728 5725 5721 5717 5713 5710 5707 5705 5702 5699 5696 5692 5689 5686 5684 5681 5678
5782 5781 5780 5779 5778 5776 5774 5772 5770 5767 5765 5762 5760 5757 5754 5750 5747 5744 5740 5737 5733 5730 5726 5723 5720 5716 5713 5709 5705 5701 5697 5693 5690 5688 5686 5683 5680 5676 5674 5672 5669 5666 5664
5775 5773 5772 5770 5768 5766 5764 5761 5759 5756 5753 5750 5747 5744 5741 5737 5734 5729 5726 5722 5718 5714 5710 5706 5703 5699 5696 5692 5688 5683 5679 5676 5672 5670 5668 5665 5663 5660 5658 5656 5653 5651 5649
5766 5764 5762 5760 5758 5756 5753 5751 5748 5745 5741 5738 5735 5731 5727 5723 5719 5715 5710 5706 5701 5696 5693 5688 5684 5680 5677 5673 5668 5664 5661 5657 5654 5650 5648 5647 5645 5643 5641 5639 5637 5635 5634
5757 5755 5753 5751 5748 5745 5742 5739 5736 5733 5729 5725 5721 5717 5713 5708 5704 5699 5695 5689 5684 5679 5673 5668 5664 5659 5656 5652 5648 5643 5640 5636 5632 5629 5628 5627 5625 5624 5622 5621 5620 5619 5618
Wind_Speed
7 11 13 14 15 15 14 12 11 9 7 5 4 3 3 3 4 4 5 5 5 6 7 7 8 9 10 10 10 10 11 11 11 11 12 12 12 12 12 13 14 15 16
6 9 12 14 14 13 13 12 11 10 7 6 4 3 3 3 4 4 4 5 5 6 7 8 9 9 10 10 10 10 10 11 11 12 12 12 12 12 12 13 14 15 16
6 8 11 13 13 12 12 12 10 8 7 5 4 3 3 3 3 3 4 5 5 6 7 8 9 10 10 10 10 10 10 11 11 12 12 12 13 13 13 13 14 15 16
6 8 10 12 12 11 11 10 9 8 7 6 5 4 3 3 3 3 4 5 5 7 7 8 9 9 10 10 10 11 11 11 12 13 13 13 14 14 14 15 15 16 16
6 8 10 10 10 11 10 9 8 9 7 6 5 4 3 3 3 4 5 5 6 7 7 8 8 9 10 11 11 11 12 12 13 14 14 15 15 16 16 16 17 17 18
5 7 9 8 9 9 9 9 8 8 7 6 5 4 4 4 4 5 5 6 7 7 8 9 9 10 11 11 12 13 13 13 14 15 16 16 17 17 18 18 19 19 20
4 6 7 8 8 8 9 8 8 7 6 6 5 5 5 6 6 6 6 7 8 8 9 9 10 11 11 12 13 14 14 15 16 17 17 17 18 19 20 20 21 21 22
4 5 7 6 6 6 7 7 7 7 7 6 6 6 7 7 7 7 8 9 9 10 10 11 12 12 13 14 15 16 17 17 18 18 19 19 20 21 21 22 23 24 25
2 3 5 5 5 6 6 6 7 7 8 8 8 8 8 9 9 9 10 11 11 12 13 13 14 15 16 17 18 18 19 19 20 20 21 22 22 23 23 23 24 25 26
2 3 4 5 6 7 7 8 8 9 9 9 9 9 10 10 11 12 12 13 14 15 16 16 17 18 19 19 20 21 21 22 23 23 24 25 25 25 25 25 26 26 27
5 5 6 8 8 9 9 9 10 10 11 11 11 11 12 13 13 14 15 16 17 17 18 19 20 20 21 22 23 24 24 25 25 26 27 27 27 28 28 28 28 28 29
8 8 9 10 10 11 11 11 12 12 13 13 13 14 15 15 16 17 18 18 19 20 21 22 22 23 24 25 26 26 27 27 27 28 29 29 30 30 30 30 30 30 31
11 11 11 12 12 13 13 13 14 14 15 15 16 16 17 17 18 20 21 21 22 23 24 24 25 26 27 27 28 28 29 29 30 30 31 32 32 32 32 32 32 32 33
12 12 12 12 13 14 14 15 15 16 17 17 18 18 19 20 21 22 23 24 25 26 27 27 27 28 29 30 30 30 31 32 32 33 33 33 33 33 33 34 34 34 34
13 13 13 13 14 15 16 16 17 18 19 20 21 21 22 23 24 25 26 27 28 29 30 30 31 31 31 32 32 33 33 34 34 35 34 34 34 35 35 35 35 35 35
15 15 16 15 15 15 16 17 19 20 21 22 23 24 25 26 27 28 29 30 31 32 32 33 33 34 34 34 35 36 36 36 37 37 36 36 36 36 37 37 37 37 37
18 18 17 17 17 17 18 20 21 22 23 24 25 26 27 28 29 30 31 32 34 35 35 35 36 36 37 37 38 39 39 38 39 39 39 38 38 38 38 38 38 38 39
20 21 20 20 20 21 22 23 24 24 26 26 27 28 29 30 32 33 33 35 37 37 38 39 39 39 39 40 41 42 41 41 41 41 41 41 40 40 40 40 40 40 40
21 22 22 23 23 24 24 25 26 27 28 29 30 31 32 34 35 36 37 38 39 40 41 41 41 42 42 44 45 45 44 43 43 44 44 44 43 43 43 42 41 41 41
22 23 24 25 26 26 26 27 28 29 30 31 33 34 36 37 38 39 41 41 42 43 44 45 45 46 46 47 48 49 48 47 47 46 47 46 45 45 45 44 43 42 42
24 25 26 27 27 28 29 29 31 32 33 34 35 37 38 40 40 42 43 45 46 47 48 48 48 49 50 49 50 51 52 51 50 49 49 49 48 47 47 46 45 43 43
25 26 26 27 28 29 30 31 33 34 36 37 38 39 41 42 44 45 46 47 49 50 51 52 52 53 53 53 53 54 55 55 54 52 52 51 50 50 49 47 46 46 44
24 25 27 28 29 31 32 33 35 37 38 39 41 42 44 45 47 48 49 51 52 53 54 55 55 55 55 56 56 57 58 58 57 56 55 53 52 52 51 49 48 47 46
25 26 28 29 31 33 34 36 37 39 40 42 43 45 46 47 49 51 52 53 54 56 57 57 58 58 58 58 59 60 60 60 60 59 58 56 55 54 53 51 50 49 47
27 29 30 32 33 35 36 37 39 41 42 44 45 47 48 49 51 52 54 55 57 58 59 60 61 61 61 61 62 63 62 63 63 62 61 59 57 56 55 53 52 50 48
29 31 32 34 35 36 38 39 41 42 44 45 47 49 50 52 53 55 56 58 60 61 63 64 65 65 65 65 65 66 66 66 66 65 63 62 60 58 56 54 52 51 48
Wind_Direction
193 195 195 195 194 193 197 196 193 192 194 205 218 233 256 279 296 305 314 317 317 317 318 322 326 328 327 324 321 317 314 312 310 307 303 300 295 290 284 278 274 269 265
188 187 189 194 191 190 190 189 185 181 187 197 211 231 257 284 298 307 315 319 321 325 329 330 329 329 329 328 326 323 320 316 314 312 309 305 301 296 290 283 277 272 268
184 181 185 186 187 189 188 184 175 172 180 191 204 224 249 273 289 304 317 325 328 330 332 333 333 332 331 330 328 327 325 322 319 315 313 311 306 301 295 290 284 278 274
182 182 181 182 186 186 184 178 178 179 183 188 198 214 235 261 284 303 317 327 332 334 334 334 336 335 335 333 331 329 327 326 323 320 316 313 309 305 299 293 288 283 279
165 168 170 173 179 183 180 177 182 186 187 190 197 213 235 262 283 297 309 317 324 327 329 331 333 334 334 333 331 330 328 325 322 320 317 314 311 306 302 297 292 288 283
168 170 170 165 169 177 181 182 183 185 187 196 205 219 241 261 275 286 298 308 314 318 321 324 327 328 329 329 329 329 326 323 321 318 315 313 310 307 303 299 294 290 287
156 164 169 170 172 178 181 183 183 189 197 207 216 232 249 262 272 281 291 299 306 312 315 318 319 319 321 322 323 323 323 322 321 319 316 313 310 307 304 300 297 293 290
149 165 173 175 178 183 192 195 200 206 212 220 231 243 256 265 272 279 286 293 301 306 309 310 310 311 313 314 315 316 316 317 317 317 316 313 310 306 302 299 297 295 293
155 171 189 196 201 203 208 212 218 223 227 233 241 251 261 268 274 280 286 291 296 299 301 303 305 306 307 309 310 311 312 312 312 312 312 311 309 306 303 300 297 295 294
244 224 220 223 223 223 225 227 231 237 241 245 251 258 264 270 275 280 285 289 292 295 298 300 302 304 304 305 307 308 308 308 308 308 309 308 308 306 304 301 298 296 294
270 253 242 237 235 233 235 238 242 246 250 255 259 263 267 270 275 280 284 287 289 292 295 297 298 299 300 301 302 303 305 306 306 306 307 307 306 305 304 302 299 297 295
271 264 253 245 242 240 240 242 247 251 255 259 263 265 269 272 277 281 284 286 289 290 292 294 295 296 297 298 299 301 303 304 305 306 307 306 305 304 304 302 300 298 297
270 265 256 249 246 245 245 246 249 252 256 260 264 267 271 275 278 281 283 286 288 290 291 293 294 295 296 296 298 299 301 302 303 304 305 305 305 304 304 302 301 299 298
267 266 261 253 249 249 250 252 254 256 260 263 267 270 273 276 279 281 284 286 288 289 290 292 293 294 295 296 297 298 300 301 302 303 303 304 304 303 303 303 301 300 299
264 263 261 259 256 256 257 257 259 262 265 268 271 273 276 278 280 282 284 286 289 290 291 291 292 293 294 295 296 298 300 301 302 302 302 302 302 303 303 302 301 301 300
260 261 259 260 261 261 262 263 265 269 272 274 275 276 278 280 282 284 286 288 289 290 291 292 292 293 294 294 296 298 299 300 301 301 302 301 301 301 301 301 300 300 300
263 262 259 257 259 262 265 266 269 273 276 277 278 280 281 283 284 286 287 288 289 290 290 292 293 294 295 295 296 297 298 298 299 300 300 300 300 300 300 299 299 299 299
264 262 262 261 263 265 268 271 273 277 280 280 281 282 284 285 285 286 287 288 289 290 291 292 293 294 295 295 296 295 295 296 297 298 298 299 299 299 299 298 298 298 298
261 261 261 264 266 267 270 273 276 278 280 282 283 284 286 286 286 287 288 289 289 290 291 292 292 293 294 295 294 294 294 295 296 296 296 296 296 297 297 297 297 296 296
265 264 264 266 268 271 274 276 279 281 282 282 283 284 285 285 286 287 287 288 289 290 290 290 290 291 292 293 293 293 293 294 294 294 294 294 294 295 295 296 295 295 295
270 268 269 271 271 274 277 279 281 282 282 282 283 283 284 284 285 286 287 288 288 288 288 289 289 290 291 290 291 291 291 292 292 292 293 293 293 293 293 294 294 294 293
274 272 273 274 276 277 279 280 281 283 283 284 284 284 284 285 286 286 286 287 287 287 287 288 288 288 289 289 289 289 290 290 290 291 291 291 290 290 290 291 292 292 292
275 275 275 277 278 281 281 281 283 284 284 284 285 285 285 286 287 287 286 286 286 287 287 287 287 287 288 288 288 288 288 288 288 288 288 288 288 288 288 288 289 289 289
277 279 280 281 282 283 284 284 285 286 286 286 286 287 287 287 287 287 288 288 287 287 287 287 287 287 287 286 286 286 286 286 286 286 286 285 285 285 285 286 286 286 286
282 283 284 285 285 287 287 288 288 288 288 289 289 289 289 289 289 289 289 288 288 288 288 288 287 287 286 286 285 284 284 284 284 284 283 283 283 282 282 282 282 282 282
285 285 286 287 288 289 289 289 290 290 291 291 291 291 291 290 290 290 289 289 289 289 288 288 287 287 286 285 284 283 283 282 282 281 281 281 280 280 279 278 277 278 278